Terminal Aerodrome Forecast
Issued by NWS

Home | Current Version | Previous Version | Text Only | Print | Product List | Glossary On
Versions: 1 2 3 4 5 6 7 8 9 10 11 12 13
000
FTUS45 KREV 210200 AAA
TAFMMH
TAF AMD
KMMH 210211Z 2102/2124 20010G19KT P6SM FEW100 SCT180
     FM210800 28012G24KT P6SM SCT100
     FM211200 30008KT P6SM SCT150
     FM211800 12006KT P6SM BKN150
      AMD NOT SKED 2102/2114=

USA.gov is the U.S. government's official web portal to all federal, state and local government web resources and services.